Regional Weather Roundup
Issued by NWS

Home | Current Version | Previous Version | Text Only | Print | Product List | Glossary On
Versions: 1 2 3 4 5 6 7 8 9 10 11 12 13 14 15 16 17 18 19 20 21 22 23 24 25 26 27 28 29 30 31 32 33 34 35 36 37 38 39 40 41 42 43 44 45 46 47 48 49 50
000
ASUS43 KLMK 041602
RWRKY
KENTUCKY REGIONAL WEATHER ROUNDUP
NATIONAL WEATHER SERVICE LOUISVILLE KY
1100 AM EST SUN DEC 04 2016

NOTE "FAIR" INDICATES FEW OR NO CLOUDS BELOW 12,000 FEET
WITH NO SIGNIFICANT WEATHER AND/OR OBSTRUCTIONS TO VISIBILITY.

KYZ001>023-026-027-061>063-070>075-041700-
WESTERN AND SOUTH CENTRAL KENTUCKY

CITY           SKY/WX    TMP DP  RH WIND       PRES   REMARKS
PADUCAH        LGT RAIN  42  40  92 SE6       30.01R FOG
HENDERSON      CLOUDY    43  36  75 SE7       30.04S
OWENSBORO      CLOUDY    43  40  89 SE9       30.04F
HOPKINSVILLE   CLOUDY    43  43 100 E7        30.02F FOG
BOWLING GREEN  LGT RAIN  45  42  89 SE7       30.06R
GLASGOW        NOT AVBL
$$

KYZ024-025-028>034-038-045-046-053-041700-
NORTH CENTRAL KENTUCKY

CITY           SKY/WX    TMP DP  RH WIND       PRES   REMARKS
LOUISVILLE/SDF CLOUDY    46  35  65 E9        30.06F
LOUISVILLE/LOU CLOUDY    46  35  65 SE7       30.08F
FORT KNOX      CLOUDY    41  38  89 E6        30.05S
$$

KYZ035>037-039>044-047>052-055>060-089>105-041700-
NORTHEAST KENTUCKY

CITY           SKY/WX    TMP DP  RH WIND       PRES   REMARKS
LEXINGTON      PTSUNNY   43  34  70 E7        30.09F
COVINGTON      CLOUDY    40  30  67 SE12      30.11F WCI  33
FRANKFORT      PTSUNNY   45  33  63 E9        30.08F
$$

KYZ054-064>069-076>088-106>120-041700-
SOUTHEAST KENTUCKY

CITY           SKY/WX    TMP DP  RH WIND       PRES   REMARKS
JACKSON        CLOUDY    38  31  76 VRB3      30.12F
LONDON         CLOUDY    41  37  86 SE6       30.09F
SOMERSET       NOT AVBL
MIDDLESBORO    DRIZZLE   42  41  95 SW3       30.13F
MONTICELLO     NOT AVBL
$$




USA.gov is the U.S. government's official web portal to all federal, state and local government web resources and services.